Regional Weather Roundup
Issued by NWS

Home | Current Version | Previous Version | Graphics & Text | Print | Product List | Glossary On
Versions: 1 2 3 4 5 6 7 8 9 10 11 12 13 14 15 16 17 18 19 20 21 22 23 24 25 26 27 28 29 30 31 32 33 34 35 36 37 38 39 40 41 42 43 44 45 46 47 48 49 50
000
ASUS45 KABQ 170210
RWRNM
WEATHER ROUNDUP FOR NEW MEXICO
NATIONAL WEATHER SERVICE ALBUQUERQUE NM
800 PM MDT WED APR 16 2014

NOTE: "FAIR" MEANS FEW OR NO CLOUDS BELOW 12,000 FEET AGL WITH NO
       SIGNIFICANT WEATHER OR OBSTRUCTIONS TO VISION.

      THIS PRODUCT IS RELEASED AS TWO VERSIONS.  ONE VERSION NEAR
      THE TOP OF THE HOUR CONTAINING PRELIMINARY DATA FROM ALBUQUERQUE
      AND OTHER STATIONS.  A FINAL VERSION WITH ADDITIONAL DATA IS
      ISSUED ABOUT 10 MINUTES AFTER THE HOUR.

NMZ501-503-504-510>518-170300-
NORTHWEST PLATEAU/NORTHCENTRAL MOUNTAINS

CITY           SKY/WX    TMP DP  RH WIND       PRES   REMARKS
FARMINGTON     CLEAR     54  23  30 NW13G22   29.91R
LOS ALAMOS     CLOUDY    54  15  21 W18G25    29.93R
SANTA FE       CLOUDY    59  11  15 NW10      29.89R
TAOS           CLOUDY    52  16  24 W12       29.95R
ANGEL FIRE     CLOUDY    39  30  71 E25       30.02R WCI  27

$$
NMZ402-403-502-505>509-170300-
WESTCENTRAL MOUNTAINS/SOUTHWEST MOUNTAINS

CITY           SKY/WX    TMP DP  RH WIND       PRES   REMARKS
GALLUP         MOCLDY    56  18  22 NW12      29.95R
GRANTS         CLOUDY    56  15  19 NW9       29.96R
SILVER CITY    MOCLDY    66   0   7 W13       29.88R

$$
NMZ407-409-411-412-170300-
SOUTHERN DESERTS

CITY           SKY/WX    TMP DP  RH WIND       PRES   REMARKS
LORDSBURG      FAIR      72   3   7 W13G18    29.81R
DEMING         CLEAR     73   1   6 W14       29.78R
LAS CRUCES     CLEAR     73   1   6 W16       29.79R
HOLLOMAN AFB   PTCLDY    73  -4   5 SW13      29.73R
ALAMOGORDO     PTCLDY    72  -2   5 S13       29.75R
T OR C         CLOUDY    74   0   5 NW17      29.76R

$$
NMZ519>523-170300-
CENTRAL VALLEYS/CENTRAL HIGHLANDS

CITY           SKY/WX    TMP DP  RH WIND       PRES   REMARKS
ALBUQUERQUE    CLOUDY    66  14  13 N18G25    29.88R
DOUBLE EAGLE   CLOUDY    63  12  14 NW21      29.90R
MORIARTY ARPT  FAIR      60  12  15 NW18G29   29.90R
CLINES CORNERS CLOUDY    57  10  15 NW15      29.90R
BELEN          FAIR      66  17  15 NW18      29.83R
SOCORRO        FAIR      71   6   8 NW15G22   29.81R

$$
NMZ524>526-539-540-170300-
SOUTHCENTRAL MOUNTAINS

CITY           SKY/WX    TMP DP  RH WIND       PRES   REMARKS
RUIDOSO        PTCLDY    59   0   9 CALM      29.92R

$$
NMZ527>531-170300-
NORTHEAST HIGHLANDS/NORTHEAST PLAINS

CITY           SKY/WX    TMP DP  RH WIND       PRES   REMARKS
LAS VEGAS      CLOUDY    50  23  34 NE21G29   29.95R
RATON          RAIN      39  36  89 N10       30.02R FOG     WCI  32
CLAYTON        CLOUDY    52  22  30 NE15      29.96R

$$
NMZ532>537-170300-
EASTCENTRAL PLAINS

CITY           SKY/WX    TMP DP  RH WIND       PRES   REMARKS
TUCUMCARI      CLOUDY    61  27  27 NE29G39   29.85R
CANNON AFB     CLOUDY    65  15  14 NE25      29.77R
CLOVIS AIRPORT MOCLDY    64  16  15 NE17      29.79R

$$
NMZ028-029-538-170300-
SOUTHEAST PLAINS

CITY           SKY/WX    TMP DP  RH WIND       PRES   REMARKS
ROSWELL        PTCLDY    71  15  11 N7        29.68R
ARTESIA        CLEAR     73   1   6 W15       29.70R
CARLSBAD       CLEAR     68  -3   6 SW9       29.70R
HOBBS          CLEAR     70  19  14 SE17G25   29.76R


$$



USA.gov is the U.S. government's official web portal to all federal, state and local government web resources and services.